Weather Service Report


232 
ASUS44 KLZK 271505
RWRLZK

WEATHER ROUNDUP FOR ARKANSAS
NATIONAL WEATHER SERVICE LITTLE ROCK AR
1000 AM CDT SAT MAY 27 2017

NOTE: "FAIR" INDICATES FEW OR NO CLOUDS BELOW 12,000 FEET WITH NO
SIGNIFICANT WEATHER AND/OR OBSTRUCTIONS TO VISIBILITY.

ARZ001-003-010-029-271600-
NORTHWEST ARKANSAS
  
CITY           SKY/WX    TMP DP  RH WIND       PRES   REMARKS
FAYETTEVILLE   CLOUDY    78  74  87 S10       29.86S                  
FORT SMITH     CLOUDY    83  71  67 SW8       29.84F HX  87           
HARRISON       MOSUNNY   81  73  76 S10       29.88S HX  86           
BENTONVILLE    CLOUDY    79  72  78 SW10G17   29.86S                  
ROGERS         CLOUDY    80  72  76 S16       29.86S                  
SILOAM SPGS    CLOUDY    79  70  73 S16G22    29.84S                  
HIGHFILL       CLOUDY    79  73  82 S10       29.85S                  
SPRINGDALE     CLOUDY    79  73  83 S16       29.87S                  
$$

ARZ004-005-016-271600-
NORTH CENTRAL ARKANSAS
  
CITY           SKY/WX    TMP DP  RH WIND       PRES   REMARKS
BATESVILLE     CLOUDY    79  73  83 SW8       29.89S                  
FLIPPIN        SUNNY     73  66  78 E5        29.85F                  
MTN HOME       SUNNY     76  71  85 VRB5      29.87F                  
$$

ARZ040-041-271600-
WEST CENTRAL ARKANSAS
  
CITY           SKY/WX    TMP DP  RH WIND       PRES   REMARKS
MENA           CLOUDY    79  79 100 SW3       29.91R                  
MOUNT IDA      CLOUDY    79  72  79 VRB3      29.89R                  
$$

ARZ009-017-025-026-028-271600-
NORTHEAST ARKANSAS
  
CITY           SKY/WX    TMP DP  RH WIND       PRES   REMARKS
JONESBORO      CLOUDY    78  73  84 SW10      29.89R                  
NEWPORT        PTSUNNY   82  74  76 SW18      29.88S HX  88           
WALNUT RIDGE   PTSUNNY   75  70  83 S5        29.89R                  
BLYTHEVILLE    CLOUDY    77  74  90 SW12      29.91R                  
$$

ARZ022-023-033-042-044-271600-
CENTRAL ARKANSAS
  
CITY           SKY/WX    TMP DP  RH WIND       PRES   REMARKS
LITTLE ROCK    CLOUDY    78  74  87 SW12      29.91S                  
N LITTLE ROCK    N/A     78  73  86 SW8G16    29.89S                  
JACKSONVILLE   CLOUDY    80  74  83 S9        29.90S                  
CONWAY           N/A     84  73  70 S15       29.87S HX  91           
SEARCY         CLOUDY    81  75  82 S14       29.91S HX  87           
HOT SPRINGS    CLOUDY    78  74  87 SW8       29.91S                  
RUSSELLVILLE   PTSUNNY   83  74  74 SW7       29.86S HX  89           
CLINTON        CLOUDY    79  75  89 VRB5      29.89S HAZE             
$$

ARZ036-271600-
EAST ARKANSAS
  
CITY           SKY/WX    TMP DP  RH WIND       PRES   REMARKS
WEST MEMPHIS   CLOUDY    77  74  90 S12G18    29.91S                  
$$

ARZ050-053-066-070-073-271600-
SOUTHWEST ARKANSAS
  
CITY           SKY/WX    TMP DP  RH WIND       PRES   REMARKS
ARKADELPHIA    CLOUDY    80  75  84 SW9       29.91S HX  85           
CAMDEN         PTSUNNY   82  72  69 SW12G18   29.92S HX  87           
TEXARKANA      CLOUDY    79  75  87 S10       29.90F                  
EL DORADO      CLOUDY    78  74  87 SW7       29.94R                  
DE QUEEN       CLOUDY    82  76  81 S7        29.87S HX  89           
$$

ARZ056-057-069-271600-
SOUTHEAST ARKANSAS
  
CITY           SKY/WX    TMP DP  RH WIND       PRES   REMARKS
PINE BLUFF     CLOUDY    78  73  84 SW9       29.93S                  
STUTTGART      CLOUDY    81  64  57 S15       29.93S                  
MONTICELLO     CLOUDY    79  73  82 SW8       29.94S                  

$$


  

Return to Home page


Western Regional Climate Center, wrcc@dri.edu